| time (UTC) | temp C | wind direction | speed KPH | gust KPH | rain 1hr cm | rain 24hr cm | rain mn cm | humidity % | barometer mb |
| 20260508220617 | 15 | 289 | 19.3 | 19.3 | 0.00 | 0.03 | 0.00 | 100 | |
| 20260508220117 | 16 | 279 | 12.9 | 24.1 | 0.00 | 0.03 | 0.00 | 100 | |
| 20260508215617 | 16 | 260 | 12.9 | 25.7 | 0.00 | 0.03 | 0.00 | 100 | |
| 20260508215117 | 16 | 253 | 17.7 | 35.4 | 0.00 | 0.03 | 0.00 | 100 | |
| 20260508214118 | 16 | 267 | 22.5 | 30.6 | 0.00 | 0.03 | 0.00 | 100 | |
| 20260508213617 | 17 | 241 | 19.3 | 35.4 | 0.00 | 0.03 | 0.00 | 100 | |
| 20260508213117 | 17 | 275 | 16.1 | 32.2 | 0.00 | 0.03 | 0.00 | 100 | |
| 20260508212617 | 17 | 265 | 14.5 | 22.5 | 0.00 | 0.03 | 0.00 | 100 | |
| 20260508212117 | 17 | 246 | 11.3 | 17.7 | 0.00 | 0.03 | 0.00 | 100 | |
| 20260508211617 | 18 | 271 | 11.3 | 17.7 | 0.00 | 0.03 | 0.00 | 100 | |
| 20260508211117 | 18 | 261 | 11.3 | 19.3 | 0.00 | 0.03 | 0.00 | 100 | |
| 20260508210618 | 18 | 192 | 11.3 | 19.3 | 0.00 | 0.03 | 0.00 | 100 | |
| 20260508210120 | 17 | 292 | 6.4 | 30.6 | 0.00 | 0.03 | 0.00 | 100 | |
| 20260508205617 | 17 | 248 | 22.5 | 27.4 | 0.00 | 0.03 | 0.00 | 100 | |
| 20260508205117 | 17 | 220 | 16.1 | 22.5 | 0.00 | 0.03 | 0.00 | 100 | |
| 20260508204618 | 17 | 267 | 14.5 | 35.4 | 0.00 | 0.03 | 0.00 | 100 | |
| 20260508204117 | 17 | 270 | 17.7 | 29.0 | 0.00 | 0.03 | 0.00 | 100 | |
| 20260508203617 | 17 | 239 | 17.7 | 30.6 | 0.00 | 0.03 | 0.00 | 100 | |
| 20260508203117 | 18 | 240 | 9.7 | 33.8 | 0.00 | 0.03 | 0.00 | 100 | |
| 20260508202617 | 18 | 244 | 16.1 | 29.0 | 0.00 | 0.03 | 0.00 | 100 | |
| 20260508202117 | 18 | 209 | 14.5 | 29.0 | 0.00 | 0.03 | 0.00 | 100 | |
| 20260508201622 | 18 | 260 | 16.1 | 25.7 | 0.00 | 0.03 | 0.00 | 100 | |
| 20260508201117 | 18 | 237 | 8.0 | 19.3 | 0.00 | 0.03 | 0.00 | 100 | |
| 20260508200617 | 19 | 250 | 14.5 | 24.1 | 0.00 | 0.03 | 0.00 | 100 | |
| 20260508200117 | 19 | 282 | 12.9 | 22.5 | 0.00 | 0.03 | 0.00 | 100 | |
| 20260508195617 | 19 | 255 | 12.9 | 30.6 | 0.00 | 0.03 | 0.00 | 100 | |
| 20260508195120 | 19 | 241 | 16.1 | 37.0 | 0.00 | 0.03 | 0.00 | 100 | |
| 20260508194617 | 20 | 258 | 27.4 | 38.6 | 0.00 | 0.03 | 0.00 | 100 | |
| 20260508194117 | 20 | 227 | 16.1 | 32.2 | 0.00 | 0.03 | 0.00 | 100 | |
| 20260508193617 | 20 | 264 | 19.3 | 27.4 | 0.00 | 0.03 | 0.00 | 100 | |
| 20260508193118 | 20 | 240 | 14.5 | 30.6 | 0.00 | 0.03 | 0.00 | 100 | |
| 20260508192617 | 20 | 229 | 16.1 | 20.9 | 0.00 | 0.03 | 0.00 | 100 | |
| 20260508192117 | 20 | 201 | 8.0 | 30.6 | 0.00 | 0.03 | 0.00 | 100 | |
| 20260508191619 | 19 | 226 | 16.1 | 22.5 | 0.00 | 0.03 | 0.00 | 100 | |
| 20260508191118 | 20 | 268 | 11.3 | 19.3 | 0.00 | 0.03 | 0.00 | 100 | |
| 20260508190618 | 21 | 220 | 11.3 | 19.3 | 0.00 | 0.03 | 0.00 | 100 | |
| 20260508190117 | 20 | 288 | 14.5 | 22.5 | 0.00 | 0.03 | 0.00 | 100 | |
| 20260508185618 | 19 | 268 | 12.9 | 33.8 | 0.00 | 0.03 | 0.00 | 100 | |
| 20260508185117 | 19 | 201 | 19.3 | 27.4 | 0.00 | 0.03 | 0.00 | 100 | |
| 20260508184617 | 19 | 220 | 11.3 | 30.6 | 0.00 | 0.03 | 0.00 | 100 | |
| 20260508184117 | 19 | 227 | 12.9 | 30.6 | 0.00 | 0.03 | 0.00 | 100 | |
| 20260508183618 | 20 | 281 | 8.0 | 20.9 | 0.00 | 0.03 | 0.00 | 100 | |
| 20260508183230 | 21 | 251 | 11.3 | 24.1 | 0.00 | 0.03 | 0.00 | 100 | |
| 20260508183120 | 21 | 251 | 11.3 | 24.1 | 0.00 | 0.03 | 0.00 | 100 | |
| 20260508182619 | 22 | 240 | 17.7 | 27.4 | 0.00 | 0.03 | 0.00 | 100 | |
| 20260508182117 | 21 | 260 | 19.3 | 27.4 | 0.00 | 0.03 | 0.00 | 100 | |
| 20260508181619 | 22 | 284 | 12.9 | 25.7 | 0.00 | 0.03 | 0.00 | 100 | |
| 20260508181118 | 22 | 255 | 11.3 | 25.7 | 0.00 | 0.03 | 0.00 | 100 | |
| 20260508180618 | 20 | 250 | 25.7 | 25.7 | 0.00 | 0.03 | 0.00 | 100 | |
| 20260508180118 | 21 | 268 | 14.5 | 25.7 | 0.00 | 0.03 | 0.00 | 100 | |
| 20260508175619 | 21 | 260 | 14.5 | 17.7 | 0.00 | 0.03 | 0.00 | 100 | |
| 20260508175118 | 20 | 264 | 8.0 | 27.4 | 0.00 | 0.03 | 0.00 | 100 | |
| 20260508174618 | 21 | 237 | 22.5 | 22.5 | 0.00 | 0.03 | 0.00 | 100 | |
| 20260508174118 | 21 | 267 | 19.3 | 25.7 | 0.00 | 0.03 | 0.00 | 100 | |
| 20260508173618 | 21 | 219 | 19.3 | 25.7 | 0.00 | 0.03 | 0.00 | 100 | |
| 20260508173118 | 22 | 251 | 19.3 | 25.7 | 0.00 | 0.03 | 0.00 | 100 | |
| 20260508172618 | 20 | 250 | 19.3 | 27.4 | 0.00 | 0.03 | 0.00 | 100 | |
| 20260508172118 | 20 | 226 | 19.3 | 25.7 | 0.00 | 0.03 | 0.00 | 100 | |
| 20260508171618 | 19 | 275 | 19.3 | 27.4 | 0.00 | 0.03 | 0.00 | 100 | |
| 20260508171118 | 21 | 267 | 9.7 | 19.3 | 0.00 | 0.03 | 0.00 | 100 | |
| 20260508170618 | 22 | 268 | 14.5 | 24.1 | 0.00 | 0.03 | 0.00 | 100 | |
| 20260508170118 | 23 | 265 | 12.9 | 20.9 | 0.00 | 0.03 | 0.00 | 100 | |
| 20260508165618 | 23 | 234 | 17.7 | 19.3 | 0.00 | 0.03 | 0.00 | 100 | |
| 20260508164618 | 20 | 272 | 11.3 | 16.1 | 0.00 | 0.03 | 0.00 | 100 | |
| 20260508164118 | 20 | 279 | 11.3 | 16.1 | 0.00 | 0.03 | 0.00 | 100 | |
| 20260508163618 | 18 | 258 | 8.0 | 17.7 | 0.00 | 0.03 | 0.00 | 100 | |
| 20260508163118 | 19 | 295 | 12.9 | 16.1 | 0.00 | 0.03 | 0.00 | 100 | |
| 20260508162618 | 20 | 262 | 8.0 | 16.1 | 0.00 | 0.03 | 0.00 | 100 | |
| 20260508162118 | 22 | 274 | 4.8 | 19.3 | 0.00 | 0.03 | 0.00 | 100 | |
| 20260508161621 | 20 | 312 | 14.5 | 17.7 | 0.00 | 0.03 | 0.00 | 100 | |
| 20260508161118 | 19 | 225 | 3.2 | 22.5 | 0.00 | 0.03 | 0.00 | 100 | |
| 20260508160618 | 18 | 257 | 19.3 | 22.5 | 0.00 | 0.03 | 0.00 | 100 | |
| 20260508160118 | 21 | 262 | 11.3 | 19.3 | 0.00 | 0.03 | 0.00 | 100 | |
| 20260508155618 | 20 | 262 | 14.5 | 16.1 | 0.00 | 0.03 | 0.00 | 100 | |
| 20260508155208 | 18 | 292 | 9.7 | 17.7 | 0.00 | 0.03 | 0.00 | 100 | |
| 20260508155118 | 18 | 292 | 9.7 | 17.7 | 0.00 | 0.03 | 0.00 | 100 | |
| 20260508154657 | 18 | 254 | 9.7 | 17.7 | 0.00 | 0.03 | 0.00 | 100 | |
| 20260508154618 | 18 | 254 | 9.7 | 17.7 | 0.00 | 0.03 | 0.00 | 100 | |
| 20260508154118 | 19 | 285 | 11.3 | 16.1 | 0.00 | 0.03 | 0.00 | 100 | |
| 20260508153620 | 19 | 282 | 9.7 | 17.7 | 0.00 | 0.03 | 0.00 | 100 | |
| 20260508153118 | 18 | 267 | 12.9 | 17.7 | 0.00 | 0.03 | 0.00 | 100 | |
| 20260508152618 | 18 | 268 | 9.7 | 16.1 | 0.00 | 0.03 | 0.00 | 100 | |
| 20260508152118 | 17 | 254 | 11.3 | 16.1 | 0.00 | 0.03 | 0.00 | 100 | |
| 20260508151620 | 17 | 323 | 4.8 | 20.9 | 0.00 | 0.03 | 0.00 | 100 | |
| 20260508151118 | 18 | 286 | 20.9 | 24.1 | 0.00 | 0.03 | 0.00 | 100 | |
| 20260508150618 | 17 | 281 | 14.5 | 22.5 | 0.00 | 0.03 | 0.00 | 100 | |
| 20260508150118 | 16 | 258 | 14.5 | 20.9 | 0.00 | 0.03 | 0.00 | 100 | |
| 20260508145618 | 16 | 267 | 17.7 | 17.7 | 0.00 | 0.03 | 0.00 | 100 | |
| 20260508145118 | 16 | 246 | 8.0 | 14.5 | 0.00 | 0.03 | 0.00 | 100 | |
| 20260508144621 | 15 | 288 | 4.8 | 14.5 | 0.00 | 0.03 | 0.00 | 100 | |
| 20260508144118 | 15 | 272 | 6.4 | 12.9 | 0.00 | 0.03 | 0.00 | 100 | |
| 20260508143618 | 13 | 270 | 8.0 | 16.1 | 0.00 | 0.03 | 0.00 | 100 | |
| 20260508143118 | 13 | 191 | 1.6 | 16.1 | 0.00 | 0.03 | 0.00 | 100 | |
| 20260508142618 | 13 | 225 | 16.1 | 17.7 | 0.00 | 0.03 | 0.00 | 100 | |
| 20260508142118 | 12 | 268 | 8.0 | 14.5 | 0.00 | 0.03 | 0.00 | 100 | |
| 20260508141623 | 12 | 270 | 8.0 | 17.7 | 0.00 | 0.03 | 0.00 | 100 | |
| 20260508141118 | 12 | 261 | 6.4 | 12.9 | 0.00 | 0.03 | 0.00 | 100 | |
| 20260508140618 | 12 | 274 | 4.8 | 12.9 | 0.00 | 0.03 | 0.00 | 100 | |
| 20260508140118 | 11 | 270 | 11.3 | 14.5 | 0.00 | 0.03 | 0.00 | 100 | |
| 20260508135618 | 11 | 241 | 8.0 | 16.1 | 0.00 | 0.03 | 0.00 | 100 | |
| 20260508135118 | 11 | 289 | 4.8 | 14.5 | 0.00 | 0.03 | 0.00 | 100 | |
| 20260508134618 | 11 | 226 | 8.0 | 12.9 | 0.00 | 0.03 | 0.00 | 100 | |
| 20260508134119 | 11 | 243 | 11.3 | 14.5 | 0.00 | 0.03 | 0.00 | 100 | |
| 20260508133619 | 11 | 285 | 3.2 | 12.9 | 0.00 | 0.03 | 0.00 | 100 | |
| 20260508133118 | 10 | 220 | 8.0 | 14.5 | 0.00 | 0.03 | 0.00 | 100 | |
| 20260508132618 | 10 | 251 | 6.4 | 12.9 | 0.00 | 0.03 | 0.00 | 100 | |
| 20260508132118 | 10 | 261 | 4.8 | 11.3 | 0.00 | 0.03 | 0.00 | 100 | |
| 20260508131618 | 10 | 209 | 8.0 | 14.5 | 0.00 | 0.03 | 0.00 | 100 | |
| 20260508131118 | 10 | 267 | 6.4 | 11.3 | 0.00 | 0.03 | 0.00 | 100 | |
| 20260508130618 | 10 | 262 | 6.4 | 12.9 | 0.00 | 0.03 | 0.00 | 100 | |
| 20260508130118 | 10 | 243 | 6.4 | 11.3 | 0.00 | 0.03 | 0.00 | 100 | |
| 20260508125618 | 10 | 244 | 9.7 | 12.9 | 0.00 | 0.03 | 0.00 | 100 | |
| 20260508125118 | 10 | 257 | 4.8 | 11.3 | 0.00 | 0.03 | 0.00 | 100 | |
| 20260508124618 | 10 | 257 | 3.2 | 12.9 | 0.00 | 0.03 | 0.00 | 100 | |
| 20260508124118 | 9 | 264 | 6.4 | 11.3 | 0.00 | 0.03 | 0.00 | 100 | |
| 20260508123618 | 9 | 223 | 9.7 | 14.5 | 0.00 | 0.03 | 0.00 | 100 | |
| 20260508123118 | 9 | 230 | 8.0 | 16.1 | 0.00 | 0.03 | 0.00 | 100 | |
| 20260508122619 | 9 | 208 | 9.7 | 12.9 | 0.00 | 0.03 | 0.00 | 100 | |
| 20260508122118 | 9 | 236 | 6.4 | 11.3 | 0.00 | 0.03 | 0.00 | 100 | |
| 20260508121619 | 9 | 286 | 4.8 | 11.3 | 0.00 | 0.03 | 0.00 | 100 | |
| 20260508121118 | 9 | 241 | 11.3 | 12.9 | 0.00 | 0.03 | 0.00 | 100 | |
| 20260508120618 | 9 | 239 | 11.3 | 14.5 | 0.00 | 0.03 | 0.00 | 100 | |
| 20260508120118 | 9 | 262 | 11.3 | 12.9 | 0.00 | 0.03 | 0.00 | 100 | |
| 20260508115620 | 9 | 241 | 11.3 | 16.1 | 0.00 | 0.03 | 0.00 | 100 | |
| 20260508115118 | 9 | 233 | 8.0 | 11.3 | 0.00 | 0.03 | 0.00 | 100 | |
| 20260508114618 | 9 | 227 | 8.0 | 11.3 | 0.00 | 0.03 | 0.00 | 100 | |
| 20260508114118 | 9 | 248 | 6.4 | 12.9 | 0.00 | 0.03 | 0.00 | 100 | |
| 20260508113618 | 8 | 237 | 6.4 | 11.3 | 0.00 | 0.03 | 0.00 | 100 | |
| 20260508113118 | 8 | 195 | 3.2 | 9.7 | 0.00 | 0.03 | 0.00 | 100 | |
| 20260508112618 | 8 | 226 | 4.8 | 11.3 | 0.00 | 0.03 | 0.00 | 100 | |
| 20260508112118 | 8 | 227 | 4.8 | 8.0 | 0.00 | 0.03 | 0.00 | 100 | |
| 20260508111618 | 8 | 236 | 3.2 | 9.7 | 0.00 | 0.03 | 0.00 | 100 | |
| 20260508111118 | 8 | 253 | 4.8 | 9.7 | 0.00 | 0.03 | 0.00 | 100 | |
| 20260508110618 | 7 | 233 | 3.2 | 8.0 | 0.00 | 0.03 | 0.00 | 100 | |
| 20260508110230 | 7 | 248 | 4.8 | 8.0 | 0.00 | 0.03 | 0.00 | 100 | |
| 20260508110118 | 7 | 248 | 4.8 | 8.0 | 0.00 | 0.03 | 0.00 | 100 | |
| 20260508105618 | 7 | 220 | 3.2 | 8.0 | 0.00 | 0.03 | 0.00 | 100 | |
| 20260508105118 | 7 | 215 | 1.6 | 6.4 | 0.00 | 0.03 | 0.00 | 100 | |
| 20260508104618 | 7 | 230 | 0.0 | 6.4 | 0.00 | 0.03 | 0.00 | 100 | |
| 20260508104118 | 6 | 265 | 6.4 | 6.4 | 0.00 | 0.03 | 0.00 | 100 | |
| 20260508103618 | 6 | 194 | 0.0 | 0.0 | 0.00 | 0.03 | 0.00 | 100 | |
| 20260508103118 | 6 | 194 | 0.0 | 0.0 | 0.00 | 0.03 | 0.00 | 100 | |
| 20260508102618 | 6 | 194 | 0.0 | 3.2 | 0.00 | 0.03 | 0.00 | 100 | |
| 20260508102118 | 6 | 234 | 0.0 | 4.8 | 0.00 | 0.03 | 0.00 | 100 | |
| 20260508101619 | 6 | 278 | 0.0 | 3.2 | 0.00 | 0.03 | 0.00 | 100 | |
| 20260508101118 | 6 | 261 | 1.6 | 4.8 | 0.00 | 0.03 | 0.00 | 100 | |
| 20260508100618 | 6 | 233 | 3.2 | 8.0 | 0.00 | 0.03 | 0.00 | 100 | |
| 20260508100119 | 6 | 265 | 4.8 | 6.4 | 0.00 | 0.03 | 0.00 | 100 | |
| 20260508095618 | 6 | 260 | 3.2 | 9.7 | 0.00 | 0.03 | 0.00 | 100 | |
| 20260508095118 | 6 | 258 | 4.8 | 6.4 | 0.00 | 0.03 | 0.00 | 100 | |
| 20260508094618 | 6 | 217 | 3.2 | 4.8 | 0.00 | 0.03 | 0.00 | 100 | |
| 20260508094118 | 6 | 234 | 3.2 | 3.2 | 0.00 | 0.03 | 0.00 | 100 | |
| 20260508093618 | 6 | 275 | 0.0 | 8.0 | 0.00 | 0.03 | 0.00 | 100 | |
| 20260508093118 | 6 | 255 | 0.0 | 6.4 | 0.00 | 0.03 | 0.00 | 100 | |
| 20260508092618 | 6 | 227 | 0.0 | 4.8 | 0.00 | 0.03 | 0.00 | 100 | |
| 20260508092118 | 6 | 209 | 0.0 | 6.4 | 0.00 | 0.03 | 0.00 | 100 | |
| 20260508091618 | 6 | 244 | 1.6 | 4.8 | 0.00 | 0.03 | 0.00 | 100 | |
| 20260508091118 | 6 | 277 | 0.0 | 3.2 | 0.00 | 0.03 | 0.00 | 100 | |
| 20260508090618 | 6 | 170 | 0.0 | 8.0 | 0.00 | 0.03 | 0.00 | 100 | |
| 20260508090118 | 6 | 232 | 1.6 | 8.0 | 0.00 | 0.03 | 0.00 | 100 | |
| 20260508085618 | 6 | 279 | 8.0 | 8.0 | 0.00 | 0.03 | 0.00 | 100 | |
| 20260508085118 | 6 | 293 | 0.0 | 4.8 | 0.00 | 0.03 | 0.00 | 100 | |
| 20260508084619 | 6 | 229 | 0.0 | 4.8 | 0.00 | 0.03 | 0.00 | 100 | |
| 20260508084118 | 7 | 282 | 3.2 | 8.0 | 0.00 | 0.03 | 0.00 | 100 | |
| 20260508083618 | 7 | 257 | 3.2 | 9.7 | 0.00 | 0.03 | 0.00 | 100 | |
| 20260508083118 | 7 | 213 | 4.8 | 8.0 | 0.00 | 0.03 | 0.00 | 100 | |
| 20260508082618 | 7 | 229 | 4.8 | 9.7 | 0.00 | 0.03 | 0.00 | 100 | |
| 20260508082119 | 7 | 223 | 3.2 | 9.7 | 0.00 | 0.03 | 0.00 | 100 | |
| 20260508081620 | 7 | 216 | 3.2 | 6.4 | 0.00 | 0.03 | 0.00 | 100 | |
| 20260508081119 | 7 | 253 | 1.6 | 8.0 | 0.00 | 0.03 | 0.00 | 100 | |
| 20260508080619 | 7 | 254 | 3.2 | 8.0 | 0.00 | 0.03 | 0.00 | 100 | |
| 20260508080120 | 7 | 275 | 1.6 | 3.2 | 0.00 | 0.03 | 0.00 | 100 | |
| 20260508075619 | 7 | 225 | 1.6 | 8.0 | 0.00 | 0.03 | 0.00 | 100 | |
| 20260508075119 | 7 | 206 | 3.2 | 6.4 | 0.00 | 0.03 | 0.00 | 100 | |
| 20260508074619 | 7 | 261 | 3.2 | 8.0 | 0.00 | 0.03 | 0.00 | 100 | |
| 20260508074119 | 7 | 212 | 4.8 | 9.7 | 0.00 | 0.03 | 0.00 | 100 | |
| 20260508073619 | 7 | 262 | 4.8 | 9.7 | 0.00 | 0.03 | 0.00 | 100 | |
| 20260508073119 | 7 | 239 | 4.8 | 8.0 | 0.00 | 0.03 | 0.00 | 100 | |
| 20260508072619 | 7 | 258 | 1.6 | 6.4 | 0.00 | 0.03 | 0.00 | 100 | |
| 20260508072119 | 7 | 264 | 4.8 | 8.0 | 0.00 | 0.03 | 0.00 | 100 | |
| 20260508071619 | 7 | 240 | 4.8 | 6.4 | 0.00 | 0.03 | 0.00 | 100 | |
| 20260508071119 | 8 | 251 | 3.2 | 8.0 | 0.00 | 0.03 | 0.00 | 100 | |
| 20260508070619 | 8 | 272 | 4.8 | 9.7 | 0.00 | 0.03 | 0.00 | 100 | |
| 20260508070119 | 8 | 289 | 3.2 | 9.7 | 0.00 | 0.03 | 0.00 | 100 | |
| 20260508065619 | 8 | 264 | 4.8 | 9.7 | 0.00 | 0.03 | 0.00 | 100 | |
| 20260508065119 | 8 | 237 | 6.4 | 8.0 | 0.00 | 0.03 | 0.00 | 100 | |
| 20260508064619 | 8 | 262 | 4.8 | 11.3 | 0.00 | 0.03 | 0.00 | 100 | |
| 20260508064119 | 8 | 243 | 4.8 | 12.9 | 0.00 | 0.03 | 0.00 | 100 | |
| 20260508063619 | 8 | 302 | 1.6 | 12.9 | 0.00 | 0.03 | 0.00 | 100 | |
| 20260508063121 | 8 | 260 | 6.4 | 11.3 | 0.00 | 0.03 | 0.00 | 100 | |
| 20260508062619 | 8 | 264 | 3.2 | 12.9 | 0.00 | 0.03 | 0.00 | 100 | |
| 20260508062119 | 8 | 230 | 11.3 | 11.3 | 0.00 | 0.03 | 0.00 | 100 | |
| 20260508061619 | 9 | 203 | 9.7 | 12.9 | 0.00 | 0.03 | 0.00 | 100 | |
| 20260508061119 | 9 | 219 | 6.4 | 9.7 | 0.00 | 0.03 | 0.00 | 100 | |
| 20260508060619 | 9 | 237 | 4.8 | 14.5 | 0.00 | 0.03 | 0.00 | 100 | |
| 20260508060119 | 10 | 264 | 8.0 | 11.3 | 0.00 | 0.03 | 0.00 | 100 | |
| 20260508055619 | 10 | 254 | 6.4 | 12.9 | 0.00 | 0.03 | 0.00 | 100 | |
| 20260508055122 | 10 | 316 | 3.2 | 11.3 | 0.00 | 0.03 | 0.00 | 100 | |
| 20260508054620 | 10 | 243 | 9.7 | 12.9 | 0.00 | 0.03 | 0.00 | 100 | |
| 20260508054119 | 10 | 281 | 9.7 | 16.1 | 0.00 | 0.03 | 0.00 | 100 | |
| 20260508053622 | 10 | 285 | 12.9 | 17.7 | 0.00 | 0.03 | 0.00 | 100 | |
| 20260508053119 | 10 | 209 | 6.4 | 12.9 | 0.00 | 0.03 | 0.00 | 100 | |
| 20260508052619 | 10 | 246 | 6.4 | 11.3 | 0.00 | 0.03 | 0.00 | 100 | |
| 20260508052119 | 10 | 264 | 4.8 | 17.7 | 0.00 | 0.03 | 0.00 | 100 | |
| 20260508051619 | 10 | 254 | 8.0 | 19.3 | 0.00 | 0.03 | 0.00 | 100 | |
| 20260508051119 | 10 | 274 | 12.9 | 27.4 | 0.00 | 0.03 | 0.00 | 100 | |
| 20260508050619 | 10 | 329 | 8.0 | 16.1 | 0.00 | 0.03 | 0.00 | 100 | |
| 20260508050119 | 10 | 355 | 3.2 | 9.7 | 0.00 | 0.03 | 0.00 | 100 | |
| 20260508045619 | 10 | 247 | 3.2 | 8.0 | 0.00 | 0.03 | 0.00 | 100 | |
| 20260508045119 | 10 | 216 | 3.2 | 11.3 | 0.00 | 0.03 | 0.00 | 100 | |
| 20260508044622 | 10 | 212 | 11.3 | 11.3 | 0.00 | 0.03 | 0.00 | 100 | |
| 20260508044119 | 10 | 241 | 1.6 | 11.3 | 0.00 | 0.03 | 0.00 | 100 | |
| 20260508043619 | 10 | 244 | 6.4 | 6.4 | 0.00 | 0.03 | 0.00 | 100 | |
| 20260508043119 | 9 | 201 | 3.2 | 4.8 | 0.00 | 0.03 | 0.00 | 100 | |
| 20260508042619 | 9 | 194 | 0.0 | 0.0 | 0.00 | 0.03 | 0.00 | 100 | |
| 20260508042119 | 9 | 194 | 0.0 | 0.0 | 0.00 | 0.03 | 0.00 | 100 | |
| 20260508041619 | 9 | 194 | 0.0 | 0.0 | 0.00 | 0.03 | 0.00 | 100 | |
| 20260508041120 | 9 | 194 | 0.0 | 0.0 | 0.00 | 0.03 | 0.00 | 100 | |
| 20260508040619 | 9 | 194 | 0.0 | 6.4 | 0.00 | 0.03 | 0.00 | 100 | |
| 20260508040119 | 9 | 212 | 1.6 | 4.8 | 0.00 | 0.03 | 0.00 | 100 | |
| 20260508035619 | 9 | 233 | 0.0 | 0.0 | 0.00 | 0.03 | 0.03 | 100 | |
| 20260508035119 | 8 | 233 | 0.0 | 3.2 | 0.00 | 0.03 | 0.03 | 100 | |
| 20260508034619 | 8 | 220 | 0.0 | 0.0 | 0.00 | 0.03 | 0.03 | 100 | |
| 20260508034119 | 8 | 208 | 0.0 | 0.0 | 0.00 | 0.03 | 0.03 | 100 | |
| 20260508033619 | 8 | 208 | 0.0 | 0.0 | 0.03 | 0.03 | 0.03 | 100 | |
| 20260508033119 | 8 | 208 | 0.0 | 3.2 | 0.03 | 0.03 | 0.03 | 100 | |
| 20260508032619 | 9 | 206 | 1.6 | 3.2 | 0.03 | 0.03 | 0.03 | 100 | |
| 20260508032119 | 9 | 248 | 0.0 | 0.0 | 0.03 | 0.03 | 0.03 | 100 | |
| 20260508031619 | 9 | 248 | 0.0 | 0.0 | 0.03 | 0.03 | 0.03 | 100 | |
| 20260508031119 | 9 | 248 | 0.0 | 0.0 | 0.03 | 0.03 | 0.03 | 100 | |
| 20260508030619 | 9 | 248 | 0.0 | 4.8 | 0.03 | 0.03 | 0.03 | 100 | |
| 20260508030119 | 9 | 275 | 0.0 | 3.2 | 0.03 | 0.03 | 0.03 | 100 | |
| 20260508025619 | 9 | 236 | 0.0 | 3.2 | 0.03 | 0.03 | 0.03 | 100 | |
| 20260508025120 | 9 | 237 | 0.0 | 6.4 | 0.03 | 0.03 | 0.03 | 100 | |
| 20260508024619 | 8 | 272 | 0.0 | 3.2 | 0.03 | 0.03 | 0.03 | 100 | |
| 20260508024119 | 10 | 177 | 0.0 | 8.0 | 0.03 | 0.03 | 0.03 | 100 | |
| 20260508023623 | 10 | 265 | 1.6 | 8.0 | 0.00 | 0.00 | 0.00 | 100 | |
| 20260508023119 | 10 | 246 | 0.0 | 0.0 | 0.00 | 0.00 | 0.00 | 100 | |
| 20260508022619 | 10 | 246 | 0.0 | 6.4 | 0.00 | 0.00 | 0.00 | 100 | |
| 20260508022119 | 10 | 286 | 3.2 | 6.4 | 0.00 | 0.00 | 0.00 | 100 | |
| 20260508021620 | 10 | 247 | 0.0 | 6.4 | 0.00 | 0.00 | 0.00 | 100 | |
| 20260508021119 | 10 | 285 | 4.8 | 9.7 | 0.00 | 0.00 | 0.00 | 100 | |
| 20260508020619 | 10 | 270 | 4.8 | 9.7 | 0.00 | 0.00 | 0.00 | 100 | |
| 20260508020119 | 10 | 264 | 8.0 | 8.0 | 0.00 | 0.00 | 0.00 | 100 | |
| 20260508015619 | 10 | 247 | 0.0 | 0.0 | 0.00 | 0.00 | 0.00 | 100 | |
| 20260508015119 | 10 | 247 | 0.0 | 6.4 | 0.00 | 0.00 | 0.00 | 100 | |
| 20260508014619 | 10 | 260 | 3.2 | 9.7 | 0.00 | 0.00 | 0.00 | 100 | |
| 20260508014119 | 10 | 251 | 1.6 | 9.7 | 0.00 | 0.00 | 0.00 | 100 | |
| 20260508013619 | 10 | 289 | 4.8 | 8.0 | 0.00 | 0.00 | 0.00 | 100 | |
| 20260508013119 | 10 | 293 | 4.8 | 9.7 | 0.00 | 0.00 | 0.00 | 100 | |
| 20260508012619 | 11 | 254 | 9.7 | 12.9 | 0.00 | 0.00 | 0.00 | 100 | |
| 20260508012119 | 11 | 281 | 4.8 | 9.7 | 0.00 | 0.00 | 0.00 | 100 | |
| 20260508011619 | 11 | 246 | 4.8 | 11.3 | 0.00 | 0.00 | 0.00 | 100 | |
| 20260508011119 | 11 | 285 | 3.2 | 12.9 | 0.00 | 0.00 | 0.00 | 100 | |
| 20260508010622 | 11 | 251 | 8.0 | 11.3 | 0.00 | 0.00 | 0.00 | 100 | |
| 20260508010119 | 11 | 274 | 3.2 | 9.7 | 0.00 | 0.00 | 0.00 | 100 | |
| 20260508005619 | 11 | 327 | 6.4 | 8.0 | 0.00 | 0.00 | 0.00 | 100 | |
| 20260508005119 | 11 | 260 | 1.6 | 8.0 | 0.00 | 0.00 | 0.00 | 100 | |
| 20260508004619 | 11 | 272 | 6.4 | 11.3 | 0.00 | 0.00 | 0.00 | 100 | |
| 20260508004119 | 11 | 293 | 9.7 | 12.9 | 0.00 | 0.00 | 0.00 | 100 | |
| 20260508003619 | 11 | 291 | 11.3 | 12.9 | 0.00 | 0.00 | 0.00 | 100 | |
| 20260508003119 | 11 | 303 | 11.3 | 12.9 | 0.00 | 0.00 | 0.00 | 100 | |
| 20260508002619 | 11 | 296 | 12.9 | 12.9 | 0.00 | 0.00 | 0.00 | 100 | |
| 20260508002119 | 11 | 322 | 8.0 | 19.3 | 0.00 | 0.00 | 0.00 | 100 | |
| 20260508001621 | 11 | 288 | 9.7 | 19.3 | 0.00 | 0.00 | 0.00 | 100 | |
| 20260508001120 | 12 | 11 | 1.6 | 22.5 | 0.00 | 0.00 | 0.00 | 100 | |
| 20260508000619 | 12 | 267 | 14.5 | 22.5 | 0.00 | 0.00 | 0.00 | 100 | |
| 20260508000119 | 12 | 302 | 20.9 | 27.4 | 0.00 | 0.00 | 0.00 | 100 | |
| 20260507235619 | 12 | 288 | 24.1 | 27.4 | 0.00 | 0.00 | 0.00 | 100 | |
| 20260507235120 | 12 | 296 | 14.5 | 14.5 | 0.00 | 0.00 | 0.00 | 100 | |
| 20260507234620 | 12 | 255 | 6.4 | 11.3 | 0.00 | 0.00 | 0.00 | 100 | |
| 20260507234119 | 12 | 272 | 8.0 | 16.1 | 0.00 | 0.00 | 0.00 | 100 | |
| 20260507233622 | 13 | 267 | 9.7 | 14.5 | 0.00 | 0.00 | 0.00 | 100 | |
| 20260507233119 | 13 | 265 | 6.4 | 14.5 | 0.00 | 0.00 | 0.00 | 100 | |
| 20260507232619 | 13 | 299 | 12.9 | 14.5 | 0.00 | 0.00 | 0.00 | 100 | |
| 20260507232119 | 13 | 279 | 9.7 | 16.1 | 0.00 | 0.00 | 0.00 | 100 | |
| 20260507231619 | 14 | 292 | 9.7 | 11.3 | 0.00 | 0.00 | 0.00 | 100 | |
| 20260507231119 | 14 | 286 | 9.7 | 16.1 | 0.00 | 0.00 | 0.00 | 100 | |
| 20260507230619 | 15 | 277 | 12.9 | 17.7 | 0.00 | 0.00 | 0.00 | 100 | |
| 20260507230119 | 16 | 257 | 4.8 | 14.5 | 0.00 | 0.00 | 0.00 | 100 | |
| 20260507225619 | 17 | 282 | 9.7 | 11.3 | 0.00 | 0.00 | 0.00 | 100 | |
| 20260507225119 | 16 | 296 | 8.0 | 16.1 | 0.00 | 0.00 | 0.00 | 100 | |
| 20260507224619 | 17 | 279 | 11.3 | 12.9 | 0.00 | 0.00 | 0.00 | 100 | |
| 20260507224119 | 17 | 275 | 9.7 | 14.5 | 0.00 | 0.00 | 0.00 | 100 | |
| 20260507223619 | 17 | 230 | 8.0 | 12.9 | 0.00 | 0.00 | 0.00 | 100 | |
| 20260507223119 | 16 | 239 | 1.6 | 12.9 | 0.00 | 0.00 | 0.00 | 100 | |
| 20260507222623 | 16 | 274 | 6.4 | 12.9 | 0.00 | 0.00 | 0.00 | 100 | |
| 20260507222119 | 15 | 265 | 3.2 | 12.9 | 0.00 | 0.00 | 0.00 | 100 | |
| 20260507221620 | 16 | 310 | 9.7 | 16.1 | 0.00 | 0.00 | 0.00 | 100 | |
| 20260507221119 | 18 | 288 | 6.4 | 11.3 | 0.00 | 0.00 | 0.00 | 100 |